Location: Newark
(28.1712°N, 81.8088°W)
Time: 22:35:06
(UTC+00:00)

N. Korean satellite - Visible Passes

Search period start: 11 November 2019 00:00
Search period end: 21 November 2019 00:00
Orbit: 456 x 506 km, 97.2° (Epoch: 10 November)

Date Brightness Start Highest point End Pass type
(mag) Time Alt. Az. Time Alt. Az. Time Alt. Az.
11 Nov 6.7 11:13:08 10° N 11:16:51 89° E 11:20:32 10° SSW visible
11 Nov 9.0 23:15:26 10° SSW 23:18:28 27° W 23:21:33 10° NW visible
12 Nov 8.5 10:48:05 10° NNE 10:51:30 35° E 10:54:53 10° SSE visible
13 Nov 10.0 10:23:46 10° ENE 10:26:04 16° E 10:28:19 10° SE visible
14 Nov 9.9 23:33:34 10° SW 23:35:46 16° W 23:38:00 10° WNW visible
15 Nov 7.1 11:05:05 10° NNE 11:08:46 67° E 11:12:23 10° S visible
15 Nov 8.4 23:07:01 10° SSW 23:10:19 36° W 23:13:40 10° NNW visible
16 Nov 9.0 10:40:12 10° NE 10:43:22 27° E 10:46:29 10° SSE visible
17 Nov 10.2 10:16:26 10° ENE 10:17:53 12° E 10:19:18 10° ESE visible
18 Nov 6.6 11:22:20 10° N 11:25:58 64° WNW 11:29:33 10° SSW visible
18 Nov 9.6 23:24:51 10° SW 23:27:34 20° W 23:30:20 10° NW visible
19 Nov 7.7 10:57:03 10° NNE 11:00:37 49° E 11:04:08 10° S visible
19 Nov 7.8 22:58:39 10° S 23:02:08 48° W 23:05:41 10° NNW visible
20 Nov 9.5 10:32:22 10° NE 10:35:10 21° E 10:37:56 10° SSE visible
